Weather History for Scottsbluff, NE

Change the Weather History Date:

Wednesday, January 5, 2000

  Actual Average Record
Temperature  
Mean Temperature 29 °F 26 °F  
Max Temperature 39 °F 40 °F 70 °F (1927)
Min Temperature 17 °F 13 °F -31 °F (1942)
Degree Days  
Heating Degree Days 36 39  
Month to date heating degree days 195  
Since 1 July heating degree days 2967  
Cooling Degree Days 0 0  
Month to date cooling degree days 0  
Year to date cooling degree days 0  
Moisture  
Dew Point 25 °F    
Average Humidity 79    
Maximum Humidity 100    
Minimum Humidity 55    
Precipitation  
Precipitation 0.00 in 0.01 in 0.45 in (1955)
Month to date precipitation 0.07  
Year to date precipitation 0.07  
Snow  
Snow 0.00 in 0.10 in 7.10 in (1955)
Month to date snowfall 0.9  
Since 1 July snowfall 16.9  
Snow Depth -    
Sea Level Pressure  
Sea Level Pressure 30.02 in    
Wind  
Wind Speed 16 mph (WNW)    
Max Wind Speed 22 mph    
Max Gust Speed 33 mph    
Visibility 8 miles    
Events Fog , Snow , Thunderstorm    
T = Trace of Precipitation, MM = Missing Value Source: NWS Daily Summary

Daily Weather History Graph

Daily Weather History Graph

Search for Another Location

Airport:

Trip Planner

Search our weather history database for the weather conditions in past years. The results will help you decide how hot, cold, wet, or windy it might be!

Date:

Astronomy

Jan. 05, 2000 Rise Set
Actual Time 7:22 AM MST 4:37 PM MST
Civil Twilight 6:50 AM MST 5:08 PM MST
Nautical Twilight 6:15 AM MST 5:43 PM MST
Astronomical Twilight 5:42 AM MST 6:17 PM MST
Moon 6:21 AM MST (1/5) 4:01 PM MST (1/5)
Length of Visible Light 10h 17m
Length of Day
9h 15m
Waning Crescent, 1% of the Moon is Illuminated
Jan 5
Waning Crescent
Jan 6
New
Jan 14
First Quarter
Jan 20
Full
Jan 28
Last Quarter

Hourly Weather History & Observations

Time (MST) Temp. Windchill Dew Point Humidity Pressure Visibility Wind Dir Wind Speed Gust Speed Precip Events Conditions
12:54 AM 39.9 °F 30.0 °F 25.0 °F 55% 29.82 in 10.0 mi WNW 21.9 mph 28.8 mph N/A   Overcast
1:54 AM 39.9 °F 30.0 °F 25.0 °F 55% 29.83 in 10.0 mi WNW 21.9 mph 33.4 mph N/A   Overcast
3:54 AM 37.0 °F 27.7 °F 25.0 °F 62% 29.83 in 10.0 mi West 16.1 mph 23.0 mph N/A   Overcast
4:54 AM 36.0 °F 24.7 °F 24.1 °F 62% 29.83 in 10.0 mi West 21.9 mph - N/A   Clear
5:54 AM 35.1 °F 25.5 °F 25.0 °F 67% 29.88 in 10.0 mi NW 15.0 mph - N/A   Overcast
6:54 AM 33.1 °F 24.9 °F 30.0 °F 89% 29.92 in 7.0 mi NW 10.4 mph - 0.00 in   Overcast
8:54 AM 33.1 °F 23.4 °F 28.9 °F 85% 29.96 in 10.0 mi WNW 13.8 mph - 0.00 in   Overcast
9:54 AM 34.0 °F 25.0 °F 28.0 °F 79% 29.96 in 10.0 mi WNW 12.7 mph - N/A   Overcast
10:54 AM 37.0 °F 26.7 °F 28.0 °F 70% 29.95 in 10.0 mi WNW 19.6 mph 24.2 mph N/A   Overcast
11:54 AM 37.0 °F 26.4 °F 25.0 °F 62% 29.93 in 10.0 mi WNW 20.7 mph - N/A   Clear
12:54 PM 39.9 °F 30.8 °F 25.0 °F 55% 29.94 in 10.0 mi WNW 18.4 mph 23.0 mph N/A   Clear
1:54 PM 37.0 °F 27.0 °F 26.1 °F 65% 29.96 in 10.0 mi WNW 18.4 mph - N/A   Partly Cloudy
2:54 PM 39.0 °F 31.8 °F 24.1 °F 55% 29.99 in 10.0 mi WNW 11.5 mph - N/A   Scattered Clouds
3:54 PM 33.1 °F 21.9 °F 23.0 °F 66% 30.05 in 10.0 mi NW 18.4 mph 26.5 mph N/A   Overcast
4:25 PM 30.2 °F 17.4 °F 26.6 °F 86% 30.02 in 1.8 mi NW 20.7 mph - 0.00 in Snow Light Snow
4:30 PM 30.2 °F 19.3 °F 26.6 °F 86% 30.02 in 0.8 mi NW 15.0 mph - 0.00 in Snow Light Snow
4:33 PM 30.2 °F 19.3 °F 26.6 °F 86% 30.03 in 0.5 mi NW 15.0 mph - 0.00 in Fog , Snow , Thunderstorm Thunderstorms and Snow
4:35 PM 30.2 °F 20.8 °F 28.4 °F 93% 30.03 in 0.2 mi NW 11.5 mph - 0.00 in Fog , Snow , Thunderstorm Heavy Thunderstorms and Snow
4:44 PM 28.4 °F 19.7 °F 28.4 °F 100% 30.03 in 0.5 mi NW 9.2 mph - 0.00 in Fog , Snow , Thunderstorm Thunderstorms and Snow
4:54 PM 28.9 °F 21.9 °F 28.0 °F 96% 30.09 in 5.0 mi WNW 6.9 mph - 0.00 in Snow Light Snow
5:26 PM 28.4 °F 20.4 °F 28.4 °F 100% 30.03 in 5.0 mi West 8.1 mph - 0.00 in Snow Light Snow
5:54 PM 28.9 °F 22.8 °F 27.0 °F 92% 30.11 in 10.0 mi WSW 5.8 mph - 0.00 in   Overcast
6:54 PM 27.0 °F - 26.1 °F 96% 30.14 in 10.0 mi Calm Calm - N/A   Overcast
7:54 PM 27.0 °F 18.7 °F 25.0 °F 92% 30.17 in 8.0 mi WNW 8.1 mph - N/A   Overcast
8:54 PM 21.9 °F 14.5 °F 19.9 °F 92% 30.19 in 10.0 mi WNW 5.8 mph - 0.00 in   Clear
9:54 PM 19.9 °F 9.3 °F 18.0 °F 92% 30.22 in 10.0 mi NW 9.2 mph - N/A   Clear
10:54 PM 19.9 °F 12.1 °F 18.0 °F 92% 30.24 in 9.0 mi NW 5.8 mph - N/A   Mostly Cloudy
11:54 PM 17.1 °F 8.7 °F 15.1 °F 92% 30.27 in 10.0 mi NNW 5.8 mph - N/A   Clear